TimeEDT,TemperatureF,Dew PointF,Humidity,Sea Level PressureIn,VisibilityMPH,Wind Direction,Wind SpeedMPH,Gust SpeedMPH,PrecipitationIn,Events,Conditions,WindDirDegrees,DateUTC
12:16 AM,65.5,64.9,98,29.88,7.0,WSW,3.5,-,N/A,,Overcast,240,2013-09-12 04:16:00
12:36 AM,65.1,64.8,99,29.88,7.0,WNW,5.8,-,N/A,,Overcast,290,2013-09-12 04:36:00
12:55 AM,64.9,64.6,99,29.87,7.0,WNW,5.8,-,N/A,,Mostly Cloudy,300,2013-09-12 04:55:00
1:16 AM,64.8,64.4,99,29.87,7.0,NW,4.6,-,N/A,,Overcast,310,2013-09-12 05:16:00
1:36 AM,63.9,63.5,99,29.87,10.0,NW,8.1,-,N/A,,Overcast,310,2013-09-12 05:36:00
1:55 AM,63.0,62.2,97,29.88,10.0,NW,5.8,-,N/A,,Overcast,310,2013-09-12 05:55:00
2:16 AM,62.6,62.1,98,29.88,7.0,WNW,9.2,-,N/A,,Overcast,290,2013-09-12 06:16:00
2:36 AM,61.9,61.5,99,29.88,10.0,WNW,8.1,-,N/A,,Mostly Cloudy,300,2013-09-12 06:36:00
2:55 AM,61.5,60.8,97,29.88,10.0,WNW,10.4,16.1,N/A,,Overcast,290,2013-09-12 06:55:00
3:16 AM,60.8,60.1,97,29.88,10.0,WNW,9.2,16.1,0.01,,Scattered Clouds,300,2013-09-12 07:16:00
3:36 AM,60.4,59.9,98,29.88,10.0,WNW,5.8,-,0.01,,Scattered Clouds,300,2013-09-12 07:36:00
3:56 AM,60.1,59.7,99,29.88,10.0,WNW,9.2,-,0.01,,Scattered Clouds,290,2013-09-12 07:56:00
4:16 AM,59.9,59.4,98,29.88,10.0,WNW,10.4,-,N/A,,Scattered Clouds,300,2013-09-12 08:16:00
4:35 AM,60.1,59.5,98,29.88,10.0,NW,6.9,-,N/A,,Overcast,310,2013-09-12 08:35:00
4:49 AM,60.1,59.7,99,29.88,10.0,WNW,8.1,-,N/A,,Overcast,300,2013-09-12 08:49:00
5:16 AM,60.1,59.4,97,29.88,10.0,NW,9.2,-,N/A,,Overcast,310,2013-09-12 09:16:00
5:35 AM,59.9,59.0,97,29.88,10.0,WNW,6.9,-,N/A,,Mostly Cloudy,300,2013-09-12 09:35:00
5:56 AM,59.5,59.0,98,29.88,10.0,WNW,5.8,-,N/A,,Clear,300,2013-09-12 09:56:00
6:16 AM,59.2,58.6,98,29.88,10.0,WNW,5.8,-,N/A,,Clear,300,2013-09-12 10:16:00
6:35 AM,59.7,59.0,97,29.89,10.0,NW,8.1,-,N/A,,Mostly Cloudy,320,2013-09-12 10:35:00
6:56 AM,59.4,58.6,97,29.89,10.0,NW,6.9,-,N/A,,Overcast,320,2013-09-12 10:56:00
7:16 AM,59.4,58.3,96,29.90,10.0,NW,4.6,17.3,N/A,,Overcast,320,2013-09-12 11:16:00
7:35 AM,59.2,58.5,97,29.90,10.0,NW,3.5,-,N/A,,Overcast,320,2013-09-12 11:35:00
7:56 AM,59.0,58.3,97,29.91,10.0,NW,6.9,-,N/A,,Overcast,310,2013-09-12 11:56:00
8:15 AM,58.6,57.4,96,29.92,10.0,NNW,8.1,-,N/A,,Overcast,330,2013-09-12 12:15:00
8:36 AM,58.5,56.8,94,29.92,10.0,NW,5.8,16.1,N/A,,Overcast,320,2013-09-12 12:36:00
8:56 AM,59.0,57.0,93,29.92,10.0,WNW,4.6,-,N/A,,Overcast,300,2013-09-12 12:56:00
9:15 AM,59.2,57.0,93,29.92,10.0,NW,6.9,-,N/A,,Mostly Cloudy,310,2013-09-12 13:15:00
9:36 AM,60.3,56.1,86,29.93,10.0,NW,9.2,-,N/A,,Scattered Clouds,320,2013-09-12 13:36:00
9:56 AM,60.3,53.2,78,29.93,10.0,NNW,10.4,19.6,N/A,,Clear,330,2013-09-12 13:56:00
10:15 AM,59.9,52.7,77,29.94,10.0,NNW,12.7,20.7,N/A,,Scattered Clouds,330,2013-09-12 14:15:00
10:36 AM,60.8,51.6,72,29.94,10.0,NW,9.2,19.6,N/A,,Scattered Clouds,320,2013-09-12 14:36:00
10:56 AM,59.9,50.7,72,29.95,10.0,NW,17.3,25.3,N/A,,Mostly Cloudy,310,2013-09-12 14:56:00
11:16 AM,61.2,50.2,67,29.95,10.0,NW,15.0,24.2,N/A,,Mostly Cloudy,310,2013-09-12 15:16:00
11:36 AM,60.8,49.6,67,29.95,10.0,WNW,10.4,24.2,N/A,,Overcast,300,2013-09-12 15:36:00
11:56 AM,61.3,50.4,67,29.95,10.0,NW,13.8,21.9,N/A,,Overcast,320,2013-09-12 15:56:00
12:16 PM,58.5,48.9,71,29.96,10.0,NW,12.7,28.8,N/A,,Mostly Cloudy,310,2013-09-12 16:16:00
12:36 PM,59.5,49.5,69,29.97,10.0,West,15.0,21.9,N/A,,Mostly Cloudy,280,2013-09-12 16:36:00
12:56 PM,59.0,49.5,71,29.97,10.0,WNW,15.0,20.7,N/A,,Overcast,300,2013-09-12 16:56:00
1:16 PM,59.7,49.1,68,29.97,10.0,WNW,16.1,23.0,N/A,,Overcast,300,2013-09-12 17:16:00
1:36 PM,59.9,48.4,66,29.97,10.0,NW,9.2,20.7,N/A,,Overcast,320,2013-09-12 17:36:00
1:56 PM,58.5,48.2,69,29.98,10.0,NW,10.4,21.9,N/A,,Overcast,310,2013-09-12 17:56:00
2:16 PM,60.1,48.9,67,29.98,10.0,NNW,15.0,21.9,N/A,,Overcast,330,2013-09-12 18:16:00
2:36 PM,59.2,48.2,67,29.98,10.0,NW,10.4,17.3,N/A,,Overcast,320,2013-09-12 18:36:00
2:56 PM,58.8,48.6,69,29.98,10.0,NW,16.1,21.9,N/A,,Overcast,320,2013-09-12 18:56:00
3:16 PM,57.4,48.7,73,29.98,10.0,NW,13.8,21.9,N/A,,Overcast,320,2013-09-12 19:16:00
3:36 PM,57.2,48.6,73,29.98,10.0,NNW,12.7,21.9,N/A,,Overcast,330,2013-09-12 19:36:00
3:56 PM,58.3,48.0,69,29.98,10.0,NNW,11.5,19.6,N/A,,Overcast,330,2013-09-12 19:56:00
4:16 PM,58.6,47.5,66,29.98,10.0,NNW,11.5,18.4,N/A,,Overcast,330,2013-09-12 20:16:00
4:36 PM,57.6,45.9,65,29.98,10.0,NNW,15.0,23.0,N/A,,Overcast,330,2013-09-12 20:36:00
4:56 PM,57.6,46.4,66,29.98,10.0,NNW,11.5,23.0,N/A,,Overcast,330,2013-09-12 20:56:00
5:16 PM,57.7,45.9,65,29.98,10.0,NW,15.0,24.2,N/A,,Mostly Cloudy,320,2013-09-12 21:16:00
5:36 PM,56.8,45.7,66,29.98,10.0,NW,13.8,19.6,N/A,,Overcast,320,2013-09-12 21:36:00
5:56 PM,56.3,46.6,70,29.99,10.0,NNW,13.8,19.6,N/A,,Overcast,330,2013-09-12 21:56:00
6:16 PM,55.6,46.4,71,29.99,10.0,NNW,12.7,21.9,N/A,,Overcast,330,2013-09-12 22:16:00
6:36 PM,54.9,46.0,72,30.00,10.0,NNW,13.8,23.0,N/A,,Overcast,330,2013-09-12 22:36:00
6:56 PM,54.5,46.0,73,30.00,10.0,NNW,15.0,23.0,N/A,,Overcast,330,2013-09-12 22:56:00
7:16 PM,54.1,46.0,74,30.01,10.0,NNW,12.7,23.0,N/A,,Overcast,330,2013-09-12 23:16:00
7:36 PM,53.4,45.7,75,30.01,10.0,NNW,12.7,21.9,N/A,,Overcast,340,2013-09-12 23:36:00
7:56 PM,53.1,45.5,75,30.02,10.0,NW,16.1,23.0,N/A,,Overcast,320,2013-09-12 23:56:00
8:16 PM,52.9,45.7,77,30.02,10.0,NNW,13.8,18.4,N/A,,Overcast,330,2013-09-13 00:16:00
8:37 PM,52.3,45.3,77,30.02,10.0,NNW,13.8,23.0,N/A,,Overcast,330,2013-09-13 00:37:00
8:56 PM,52.2,45.9,79,30.03,10.0,NW,13.8,20.7,N/A,,Overcast,320,2013-09-13 00:56:00
9:16 PM,51.8,46.0,81,30.04,10.0,NNW,12.7,24.2,N/A,,Overcast,330,2013-09-13 01:16:00
9:37 PM,51.1,46.8,85,30.04,10.0,NW,15.0,20.7,N/A,,Overcast,320,2013-09-13 01:37:00
9:56 PM,51.1,47.3,87,30.05,10.0,NW,11.5,20.7,N/A,,Overcast,320,2013-09-13 01:56:00
10:16 PM,51.1,47.1,86,30.05,10.0,NNW,10.4,18.4,N/A,,Overcast,330,2013-09-13 02:16:00
10:36 PM,51.1,47.1,86,30.05,10.0,NNW,8.1,21.9,N/A,,Overcast,340,2013-09-13 02:36:00
10:56 PM,51.1,46.9,86,30.05,10.0,NNW,12.7,18.4,N/A,,Overcast,340,2013-09-13 02:56:00
11:16 PM,50.9,46.6,85,30.05,10.0,North,12.7,19.6,N/A,,Overcast,360,2013-09-13 03:16:00
11:36 PM,50.0,46.4,87,30.06,10.0,North,9.2,-,N/A,,Overcast,350,2013-09-13 03:36:00
11:56 PM,50.2,44.4,81,30.06,10.0,NNE,9.2,16.1,N/A,,Overcast,20,2013-09-13 03:56:00